Location: *
(1.3500°S, 147.5000°W)
Time: 22:08:21
(UTC+00:00)

Ariane H10 - Pass Details

Date: 07 April 2020
Orbit: 308 x 15708 km, 4.0° (Epoch: 02 June)

Event Time Altitude Azimuth Distance (km) Brightness Sun altitude
Rises 04:35:40 0° 280° (W) 2,162 8.6 -11.0°
Reaches altitude 10° 04:37:03 10° 287° (WNW) 1,517 7.1 -11.3°
Maximum altitude 04:39:57 51° 6° (N) 849 4.2 -12.0°
Enters shadow 04:46:23 14° 78° (ENE) 3,446 6.8 -13.6°
